[[{"header":{"parameterUnit":"m.s-1","parameterCategory":1,"la1":30.2991,"la2":30.254,"lo1":-89.0895,"lo2":-89.0444,"dy":0.0017,"dx":0.0017,"nx":28,"ny":28,"refTime":"2024-08-01T21:00:00:Z","depth":0,"parameterNumber":2,"parameterNumberName":"U-component_of_WINDS"},"data":[0,0,0,0,0,0,0,0,0,0,0,0,0,0,0,0,0,0,0,0,0,0,0,0,0,0,0,0,0,0,0,0,0,0,0,0,0,0,0,0,0,0,0,0,0,0,0,0,0,0,0,0,0,0,0,0,0,0,3.2363,3.2364,0,3.2455,3.2456,3.2457,3.2444,3.2443,3.2441,3.244,3.2539,3.2543,3.2547,0,0,0,0,0,0,0,0,0,0,0,0,0,3.2184,3.2187,3.2363,3.2364,3.2365,3.2454,3.2456,3.2457,3.2445,3.2443,3.2441,3.2439,3.2538,3.2542,3.2547,0,0,0,0,0,0,0,0,0,0,0,0,0,3.2267,3.2188,3.2363,3.237,3.2371,3.2454,3.2456,3.2457,3.2445,3.2443,3.244,3.2438,3.2536,3.2542,3.2548,3.2631,0,0,3.2567,3.2569,0,0,0,0,0,0,0,0,3.2263,3.2274,3.2368,3.2369,3.2371,3.2436,3.2429,3.2516,3.2446,3.2417,3.244,3.2437,3.2507,3.2515,3.2538,3.2636,3.264,3.2567,3.2571,3.2574,3.2575,0,0,0,0,0,0,0,3.2257,3.227,3.2399,3.2369,3.2371,3.237,3.238,3.2445,3.2474,3.2419,3.2419,3.243,3.2507,3.2532,3.254,3.2642,3.2567,3.2572,3.2576,3.2579,3.2816,3.2819,0,0,0,0,0,0,3.2248,3.2265,3.2396,3.2402,3.231,3.2375,3.2386,3.2417,3.2473,3.2479,3.2431,3.2429,3.2522,3.2533,3.2543,3.2646,3.2573,3.2579,3.2583,3.2814,3.2817,3.282,0,0,0,0,0,0,3.2245,3.226,3.2393,3.2333,3.235,3.2381,3.2416,3.242,3.2444,3.2482,3.2488,3.245,3.2521,3.2535,3.261,3.2649,3.2582,3.2587,3.2811,3.2815,3.2818,3.2851,0,0,0,0,0,0,3.2239,3.2259,3.2289,3.2334,3.2353,3.2456,3.2419,3.2424,3.2454,3.2452,3.2501,3.2508,3.252,3.2601,3.2616,3.2656,3.2592,3.2807,3.2813,3.2817,3.2847,3.2856,3.2864,0,0,0,0,0,3.2233,3.2295,3.2291,3.2307,3.2392,3.2458,3.2469,3.2481,3.2458,3.249,3.2514,3.2506,3.2643,3.2609,3.2626,3.2668,3.2805,3.2811,3.2817,3.2843,3.2854,3.2864,0,0,0,0,0,0,3.2255,3.2301,3.2297,3.2375,3.2412,3.2456,3.2496,3.2492,3.2538,3.2534,3.2549,3.256,3.2636,3.266,3.2621,3.2754,3.2721,3.273,3.2735,3.2746,3.2754,3.2747,3.2597,0,0,0,0,0,3.2269,3.2317,3.2356,3.2421,3.244,3.2465,3.2494,3.25,3.2541,3.2557,3.2587,3.2628,3.268,3.2714,3.2765,3.2851,3.2862,3.2889,3.2897,3.2904,3.2912,3.2962,3.2974,3.284,3.284,3.2839,0,0,3.2298,3.2329,3.2359,3.2426,3.2456,3.2508,3.2478,3.2534,3.2573,3.2566,3.2638,3.2662,3.2709,3.2791,3.2828,3.2813,3.2952,3.2912,3.2917,3.2921,3.2969,3.2982,3.2993,3.2844,3.2843,3.2842,0,0,3.2378,3.2406,3.2464,3.2495,3.254,3.2557,3.2571,3.2615,3.263,3.2703,3.2699,3.2748,3.2837,3.2871,3.29,3.2996,3.2991,3.3012,3.3056,3.3104,3.3115,3.3124,3.316,3.3172,3.302,3.302,3.302,0,3.2409,3.2485,3.2495,3.2552,3.2582,3.2577,3.2638,3.2668,3.2728,3.2751,3.2732,3.2845,3.2877,3.2967,3.299,3.3014,3.3032,3.3006,3.3112,3.3122,3.3131,3.3165,3.3178,3.3022,3.3022,3.3022,3.3022,0,3.2522,3.2575,3.2617,3.2674,3.271,3.2768,3.2789,3.2825,3.2829,3.2848,3.2924,3.2961,3.302,3.3042,3.3046,3.3134,3.3123,3.3108,3.3076,3.3146,3.3178,3.3191,3.3026,3.3025,3.3024,3.3024,0,0,3.2616,3.268,3.2695,3.2722,3.2773,3.2815,3.2875,3.2931,3.2961,3.3004,3.3056,3.3132,3.312,3.3153,3.3161,3.3203,3.3279,3.3184,3.3185,3.3201,3.338,3.339,3.3405,3.3276,3.3278,3.328,3.3376,0,3.2702,3.2805,3.2817,3.291,3.2961,3.2958,3.301,3.3048,3.3069,3.3116,3.3139,3.3194,3.3172,3.3193,3.3234,3.3261,3.3315,3.3254,3.3326,3.3328,3.3314,3.3422,3.3433,3.3521,3.3388,3.3391,3.3392,0,3.2815,3.286,3.2957,3.3003,3.3025,3.3071,3.3125,3.3169,3.3214,3.3226,3.3264,3.3268,3.3332,3.3297,3.3387,3.3345,3.3376,3.3393,3.3397,3.3405,3.3364,3.3433,3.3549,3.3563,3.3412,3.341,3.3409,0,3.2875,3.2961,3.303,3.3053,3.3108,3.3141,3.3166,3.3208,3.3242,3.3289,3.3312,3.3367,3.3397,3.3441,3.346,3.3432,3.355,3.3516,3.3563,3.3563,3.3587,3.3586,3.3711,3.3607,3.3606,3.3606,3.3606,0,3.297,3.303,3.3058,3.3101,3.317,3.3185,3.3252,3.3276,3.3314,3.3363,3.3365,3.3412,3.3434,3.3485,3.3501,3.3574,3.3588,3.3601,3.3604,3.3601,3.3599,3.3621,3.3616,3.361,3.3609,3.3608,3.3608,0,3.3048,3.307,3.3146,3.3192,3.3205,3.3254,3.3294,3.3337,3.3358,3.342,3.3436,3.3469,3.3529,3.3553,3.3626,3.3637,3.3722,3.372,3.3706,3.3707,3.3753,3.3749,3.3897,3.3918,3.38,3.3801,3.3802,0,3.3107,3.3153,3.3204,3.3237,3.3263,3.3315,3.3349,3.3367,3.3403,3.3458,3.3495,3.3555,3.3604,3.37,3.3732,3.3789,3.379,3.3838,3.3798,3.3794,3.3791,3.3788,3.3794,3.3845,3.3846,3.3847,3.3848,0,3.3209,3.3218,3.3266,3.332,3.3361,3.3404,3.3445,3.3473,3.3497,3.3538,3.3599,3.3637,3.3712,3.3772,3.3831,3.3859,3.3859,3.386,3.3875,3.3871,3.3861,3.3868,3.3726,3.3857,3.3856,3.3855,3.3855,3.3855,3.328,3.3322,3.3365,3.342,3.3453,3.3493,3.3536,3.3562,3.3612,3.3674,3.3682,3.3748,3.3794,3.3873,3.3904,3.3957,3.3945,3.3965,3.397,3.3975,3.3978,3.3853,3.3968,3.3968,3.3968,3.3968,3.3967,0,3.3383,3.3411,3.3461,3.352,3.3564,3.3558,3.3605,3.3643,3.37,3.3742,3.379,3.3862,3.392,3.3957,3.4017,3.4053,3.4054,3.4068,3.4065,3.4072,3.3986,3.3968,3.4066,3.4066,3.4066,3.4066,3.4066,3.4066,3.3442,3.3512,3.3527,3.3615,3.3643,3.3706,3.3734,3.3771,3.3805,3.3884,3.3933,3.3956,3.3997,3.406,3.4115,3.4124,3.4146,3.4161,3.417,3.4088,3.4078,3.4068,3.4052,3.4166,3.4166,3.4252,3.4253,3.4254]},{"header":{"parameterUnit":"m.s-1","parameterCategory":1,"la1":30.2991,"la2":30.254,"lo1":-89.0895,"lo2":-89.0444,"dy":0.0017,"dx":0.0017,"nx":28,"ny":28,"refTime":"2024-08-01T21:00:00:Z","depth":0,"parameterNumber":3,"parameterNumberName":"V-component_of_WINDS"},"data":[0,0,0,0,0,0,0,0,0,0,0,0,0,0,0,0,0,0,0,0,0,0,0,0,0,0,0,0,0,0,0,0,0,0,0,0,0,0,0,0,0,0,0,0,0,0,0,0,0,0,0,0,0,0,0,0,0,0,3.2191,3.2193,0,3.2347,3.2348,3.235,3.2366,3.2365,3.2363,3.2362,3.2518,3.2523,3.2529,0,0,0,0,0,0,0,0,0,0,0,0,0,3.1902,3.1907,3.2191,3.2193,3.2195,3.2346,3.2349,3.2351,3.2367,3.2365,3.2363,3.2361,3.2516,3.2523,3.2529,0,0,0,0,0,0,0,0,0,0,0,0,0,3.2039,3.1909,3.219,3.2221,3.2225,3.2346,3.2349,3.2351,3.2367,3.2365,3.2362,3.236,3.2514,3.2522,3.253,3.263,0,0,3.2556,3.256,0,0,0,0,0,0,0,0,3.2031,3.205,3.2215,3.2219,3.2224,3.2335,3.2304,3.2445,3.2368,3.2313,3.2362,3.2359,3.2459,3.2471,3.2506,3.2637,3.2644,3.2557,3.2562,3.2566,3.2568,0,0,0,0,0,0,0,3.2022,3.2043,3.2252,3.2217,3.2223,3.2225,3.2242,3.2331,3.2397,3.2318,3.2319,3.2338,3.2461,3.2498,3.251,3.2646,3.2557,3.2564,3.2569,3.2573,3.2863,3.2865,0,0,0,0,0,0,3.2007,3.2035,3.2247,3.2257,3.212,3.2232,3.2251,3.2302,3.2396,3.2409,3.234,3.2338,3.2484,3.25,3.2515,3.2635,3.2566,3.2573,3.2578,3.286,3.2864,3.2866,0,0,0,0,0,0,3.2001,3.2026,3.2241,3.2147,3.2174,3.224,3.2296,3.2306,3.2343,3.2413,3.2424,3.2365,3.2483,3.2503,3.2601,3.2641,3.2577,3.2585,3.2857,3.2861,3.2865,3.2878,0,0,0,0,0,0,3.1993,3.2024,3.2064,3.2147,3.2179,3.2326,3.2299,3.2311,3.2358,3.2357,3.244,3.2451,3.2483,3.2588,3.2609,3.2652,3.2592,3.2854,3.2859,3.2864,3.2874,3.2882,3.2889,0,0,0,0,0,3.1982,3.2061,3.2066,3.2091,3.2231,3.2328,3.2346,3.2382,3.2361,3.2401,3.2445,3.2449,3.2633,3.2598,3.2622,3.2667,3.2851,3.2858,3.2863,3.2871,3.2881,3.2889,0,0,0,0,0,0,3.198,3.2073,3.2079,3.2188,3.225,3.2331,3.2382,3.2391,3.246,3.2456,3.2496,3.2514,3.2609,3.2648,3.2607,3.2767,3.274,3.2751,3.2738,3.2747,3.2754,3.2742,3.2599,0,0,0,0,0,3.1993,3.2066,3.2142,3.2231,3.2262,3.2316,3.236,3.2382,3.2447,3.2474,3.2525,3.2587,3.2659,3.2705,3.2776,3.288,3.2896,3.2923,3.293,3.2936,3.2944,3.2999,3.301,3.2886,3.2886,3.2886,0,0,3.2019,3.2078,3.2122,3.2232,3.2283,3.2355,3.2339,3.2417,3.247,3.2485,3.258,3.262,3.2691,3.2792,3.2839,3.2827,3.2982,3.2943,3.2947,3.2953,3.3006,3.3018,3.3028,3.289,3.2889,3.2889,0,0,3.2103,3.2157,3.2235,3.2286,3.2363,3.2398,3.2417,3.2496,3.2523,3.2619,3.2631,3.2694,3.2818,3.2867,3.2909,3.3008,3.3013,3.303,3.3066,3.3119,3.3129,3.3138,3.317,3.3182,3.3038,3.3038,3.3038,0,3.2125,3.2237,3.2274,3.2351,3.2397,3.2415,3.2492,3.254,3.2635,3.2666,3.2652,3.2805,3.2855,3.2965,3.2989,3.3023,3.3043,3.302,3.3125,3.3134,3.3143,3.3174,3.3187,3.304,3.3039,3.3039,3.3039,0,3.2259,3.2335,3.2389,3.2481,3.2533,3.261,3.2657,3.2705,3.2721,3.2757,3.2853,3.2913,3.2994,3.3022,3.3039,3.3134,3.3124,3.3117,3.3091,3.3155,3.3185,3.3198,3.3042,3.3041,3.3041,3.304,0,0,3.2347,3.2457,3.2476,3.2516,3.2601,3.266,3.2736,3.2816,3.2855,3.292,3.2983,3.3086,3.3079,3.3126,3.3148,3.3194,3.3265,3.3182,3.3184,3.3193,3.337,3.3373,3.3387,3.3269,3.3272,3.3274,3.3363,0,3.2439,3.2577,3.2611,3.2728,3.2797,3.2813,3.2879,3.2937,3.2972,3.3034,3.3072,3.3143,3.3131,3.3159,3.3205,3.3247,3.3301,3.3241,3.3326,3.3328,3.3306,3.3403,3.3408,3.349,3.3375,3.3378,3.3379,0,3.2565,3.2632,3.2756,3.2829,3.2859,3.2919,3.2992,3.3053,3.3117,3.3139,3.319,3.3207,3.3284,3.3254,3.3359,3.3317,3.3354,3.3379,3.3383,3.3391,3.3357,3.3412,3.3517,3.3528,3.3399,3.3397,3.3396,0,3.2614,3.2735,3.2824,3.2859,3.2947,3.2987,3.3026,3.3088,3.3133,3.3197,3.3226,3.3298,3.3336,3.339,3.3425,3.3401,3.3526,3.35,3.3544,3.3543,3.3569,3.3566,3.3679,3.3595,3.3595,3.3595,3.3595,0,3.2712,3.2786,3.2847,3.2901,3.2984,3.3021,3.3101,3.314,3.3195,3.3255,3.3273,3.3329,3.3372,3.3433,3.346,3.3541,3.3559,3.3577,3.3583,3.3574,3.3572,3.3598,3.3592,3.3598,3.3597,3.3597,3.3596,0,3.278,3.2824,3.2921,3.2997,3.3017,3.3074,3.3137,3.3189,3.3224,3.33,3.332,3.3374,3.3446,3.3486,3.3577,3.3595,3.3684,3.3689,3.3663,3.3665,3.3706,3.37,3.3837,3.3856,3.3762,3.3763,3.3763,0,3.2839,3.2896,3.2977,3.302,3.3059,3.3127,3.3172,3.321,3.3256,3.3332,3.3374,3.3448,3.3508,3.3622,3.3668,3.3737,3.3741,3.3784,3.3752,3.374,3.3739,3.3734,3.3739,3.379,3.379,3.3791,3.3792,0,3.2938,3.2956,3.3022,3.3094,3.3148,3.3207,3.3265,3.3298,3.3345,3.3395,3.347,3.3517,3.3608,3.368,3.3752,3.3788,3.3797,3.3802,3.3815,3.3806,3.3788,3.3796,3.3676,3.3798,3.3798,3.3797,3.3797,3.3796,3.3002,3.3052,3.3117,3.3188,3.3236,3.3289,3.3341,3.3382,3.3445,3.3523,3.3541,3.3619,3.3678,3.3776,3.3814,3.3873,3.3865,3.3885,3.389,3.3894,3.3894,3.3779,3.3887,3.3887,3.3887,3.3886,3.3886,0,3.3099,3.3141,3.3207,3.3287,3.3342,3.3347,3.3411,3.3456,3.3524,3.358,3.3639,3.3722,3.3791,3.3842,3.3911,3.3949,3.3954,3.3965,3.3962,3.397,3.3899,3.3879,3.396,3.3959,3.3959,3.3959,3.3959,3.3959,3.3157,3.3242,3.3267,3.3375,3.3415,3.3492,3.3528,3.3576,3.362,3.3713,3.377,3.3803,3.3856,3.3929,3.3991,3.4004,3.4027,3.4038,3.405,3.3983,3.3975,3.3967,3.3949,3.4043,3.4043,3.4116,3.4117,3.4117]}]]